Weather Service Report


856 
ASUS44 KLIX 290611
RWRLIX
NEW ORLEANS REGIONAL WEATHER ROUNDUP
NATIONAL WEATHER SERVICE NEW ORLEANS LA
100 AM CDT THU SEP 29 2016

NOTE: "FAIR" INDICATES FEW OR NO CLOUDS BELOW 12,000 FEET WITH NO
      SIGNIFICANT WEATHER AND/OR OBSTRUCTIONS TO VISIBILITY.
      SKY/WX - SKY CONDITION AND SIGNIFICANT WEATHER.
      TMP - AIR TEMPERATURE.     DP    - DEWPOINT TEMPERATURE.
      RH  - RELATIVE HUMIDITY.   PRES  - PRESSURE.
      HI  - HEAT INDEX.          WCI   - WIND CHILL INDEX.

*  THESE STATIONS ARE NOT NWS OR FAA STATIONS AND ARE NOT UNDER
   NWS QUALITY CONTROL. 

LAZ038-040-048-061>063-065>067-069-290700-
SOUTHEAST LOUISIANA
  
CITY           SKY/WX    TMP DP  RH WIND       PRES   REMARKS
N.O. AUDUBON   NOT AVBL                                               
N.O. INTL ARPT PTCLDY    78  70  76 W3        29.99F                  
6HR MIN TEMP:  78; 6HR MAX TEMP:  86;                                

N.O. LAKEFRONT CLEAR     83  69  62 NW13      29.99F                  
6HR MIN TEMP:  83; 6HR MAX TEMP:  85;                                

N.O. DOWNTOWN*   N/A     81  69  67 CALM      30.00F                  
6HR MIN TEMP:  80; 6HR MAX TEMP:  86;                                

RESERVE*         N/A     73  71  92 CALM      30.00F                  
6HR MIN TEMP:  73; 6HR MAX TEMP:  82;                                

SLIDELL        CLEAR     70  67  90 N3        29.99S                  
6HR MIN TEMP:  70; 6HR MAX TEMP:  81;                                

BATON ROUGE    CLEAR     70  68  93 CALM      30.01S                  
6HR MIN TEMP:  70; 6HR MAX TEMP:  80; 6HR PCP: TRACE;                

BOOTHVILLE     CLEAR     77  73  87 W5        30.00S                  
6HR MIN TEMP:  76; 6HR MAX TEMP:  82;                                

BELLE CHASSE   CLEAR     72  69  90 CALM      29.99F                  
6HR MIN TEMP:  71; 6HR MAX TEMP:  79;                                

BOGALUSA*        N/A     68  65  88 CALM      30.01F                  
6HR MIN TEMP:  67; 6HR MAX TEMP:  80;                                

GALLIANO*      CLEAR    N/A N/A N/A CALM      30.00F                  
NEW ROADS*       N/A     66  65  96 MISG      30.01F                  
6HR MIN TEMP:  66; 6HR MAX TEMP:  80;                                

GONZALES*        N/A     70  70  98 CALM      30.00F                  
6HR MIN TEMP:  70; 6HR MAX TEMP:  78;                                

HAMMOND*       CLEAR     68  64  88 CALM      30.00S FOG              
HOUMA*         CLEAR     73  72  95 CALM      30.00F                  
6HR MIN TEMP:  71; 6HR MAX TEMP:  79;                                

PORT FOURCHON* CLEAR     81  72  74 NW8       30.00F                  

$$

MSZ070-080>082-290700-
SOUTHERN MISSISSIPPI
  
CITY           SKY/WX    TMP DP  RH WIND       PRES   REMARKS
MCCOMB         CLEAR     68  63  84 CALM      30.01F                  
6HR MIN TEMP:  65; 6HR MAX TEMP:  78;                                

GULFPORT       CLEAR     73  69  87 W3        29.98S                  
6HR MIN TEMP:  73; 6HR MAX TEMP:  81;                                

BILOXI         CLEAR     75  70  84 VRB2      29.98F                  
6HR MIN TEMP:  75; 6HR MAX TEMP:  81;                                

PASCAGOULA     CLEAR     68  68 100 CALM      29.99S                  
6HR MIN TEMP:  67; 6HR MAX TEMP:  80;                                


$$

COASTAL OBSERVATIONS
LAKE AND NEARSHORE STATIONS
  
STATION/POSITION TIME  TEMP    WIND        PRES    WAVE
                       AIR SEA DIR/SP/G            HT/PER
                 (UTC) (F)     (DEG/KT/KT) (MB)    (FT/S)
PASCAGOULA       0500   78     300/  6/  8 1015.0
WAVELAND YACHT   0500   76 85  300/  5/  7 1015.7
GRAND ISLE       0500   82 87  310/  9/ 10 1016.2
SOUTHWEST PASS   0500          310/  8/ 14   N/A
NEW CANAL        0500   83 86  290/  4/  9 1015.1
SHELL BEACH      0500   80 87  270/  5/  7 1015.9

OFFSHORE STATIONS
  
STATION/POSITION TIME  TEMP    WIND        PRES    WAVE
                       AIR SEA DIR/SP/G            HT/PER
                 (UTC) (F)     (DEG/KT/KT) (MB)    (FT/S)
64 S DAUPHIN ISL 0500   83 85  240/  8/ 10 1015.5

$$

  


857 
ASUS44 KLIX 290611
RWRLA 
LOUISIANA WEATHER ROUNDUP
NATIONAL WEATHER SERVICE NEW ORLEANS LA
100 AM CDT THU SEP 29 2016

NOTE: "FAIR" INDICATES FEW OR NO CLOUDS BELOW 12,000 FEET WITH NO
      SIGNIFICANT WEATHER AND/OR OBSTRUCTIONS TO VISIBILITY.
      SKY/WX - SKY CONDITION AND SIGNIFICANT WEATHER.
      TMP - AIR TEMPERATURE.    DP   - DEWPOINT TEMPERATURE.
      RH  - RELATIVE HUMIDITY.  PRES - PRESSURE.
      HX  - HEAT INDEX.         WCI  - WIND CHILL INDEX.

*  THESE STATIONS ARE NOT NWS OR FAA STATIONS AND ARE NOT UNDER
   NWS QUALITY CONTROL.

LAZ040-048-061>063-065-066-069-290700-
SOUTHEAST LOUISIANA
  
CITY           SKY/WX    TMP DP  RH WIND       PRES   REMARKS
N.O. AUDUBON   NOT AVBL                                               
N.O. INTL ARPT PTCLDY    78  70  76 W3        29.99F                  
6HR MIN TEMP:  78; 6HR MAX TEMP:  86;                                

N.O. LAKEFRONT CLEAR     83  69  62 NW13      29.99F                  
6HR MIN TEMP:  83; 6HR MAX TEMP:  85;                                

N.O. DOWNTOWN*   N/A     81  69  67 CALM      30.00F                  
6HR MIN TEMP:  80; 6HR MAX TEMP:  86;                                

RESERVE*       FAIR      73  71  92 CALM      30.00F                  
6HR MIN TEMP:  73; 6HR MAX TEMP:  82;                                

SLIDELL        CLEAR     70  67  90 N3        29.99S                  
6HR MIN TEMP:  70; 6HR MAX TEMP:  81;                                

BATON ROUGE    CLEAR     70  68  93 CALM      30.01S                  
6HR MIN TEMP:  70; 6HR MAX TEMP:  80; 6HR PCP: TRACE;                

BOOTHVILLE     CLEAR     77  73  87 W5        30.00S                  
6HR MIN TEMP:  76; 6HR MAX TEMP:  82;                                

BELLE CHASSE   CLEAR     72  69  90 CALM      29.99F                  
6HR MIN TEMP:  71; 6HR MAX TEMP:  79;                                

BOGALUSA*      FAIR      68  65  88 CALM      30.01F                  
6HR MIN TEMP:  67; 6HR MAX TEMP:  80;                                

GALLIANO*      CLEAR    N/A N/A N/A CALM      30.00F                  
NEW ROADS*     FAIR      66  65  96 MISG      30.01F                  
6HR MIN TEMP:  66; 6HR MAX TEMP:  80;                                

GONZALES*      FAIR      70  70  98 CALM      30.00F                  
6HR MIN TEMP:  70; 6HR MAX TEMP:  78;                                

HAMMOND*       CLEAR     68  64  88 CALM      30.00S FOG              
HOUMA*         CLEAR     73  72  95 CALM      30.00F                  
6HR MIN TEMP:  71; 6HR MAX TEMP:  79;                                

PORT FOURCHON* CLEAR     81  72  74 NW8       30.00F                  

$$

LAZ041-044-053-054-290700-
SOUTHWEST LOUISIANA
  
CITY           SKY/WX    TMP DP  RH WIND       PRES   REMARKS
LAKE CHARLES   CLEAR     69  67  93 CALM      30.03F                  
6HR MIN TEMP:  69; 6HR MAX TEMP:  81;                                

LAFAYETTE      CLEAR     74  68  81 NW3       30.02F                  
6HR MIN TEMP:  73; 6HR MAX TEMP:  83;                                

PATTERSON      CLEAR     74  70  87 NW3       30.02F                  
6HR MIN TEMP:  74; 6HR MAX TEMP:  80; 6HR PCP: TRACE;                

SALT POINT     NOT AVBL                                               
NEW IBERIA     CLEAR     70  66  87 W3        30.02F                  
6HR MIN TEMP:  70; 6HR MAX TEMP:  82;                                

CHENAULT AIRPK   N/A     68  66  91 CALM      30.03F                  
6HR MIN TEMP:  67; 6HR MAX TEMP:  81;                                


$$

LAZ027-028-290700-
CENTRAL LOUISIANA
  
CITY           SKY/WX    TMP DP  RH WIND       PRES   REMARKS
FORT POLK      CLEAR     63  62  94 N3        30.03F                  
6HR MIN TEMP:  63; 6HR MAX TEMP:  77;                                

ALEXANDRIA INT CLEAR     64  62  93 NW3       30.01F                  
6HR MIN TEMP:  64; 6HR MAX TEMP:  77;                                

ALEXANDRIA     CLEAR     63  63 100 CALM      30.02F FOG              
6HR MIN TEMP:  62; 6HR MAX TEMP:  74;                                


$$

LAZ001-002-290700-
NORTHWEST LOUISIANA
  
CITY           SKY/WX    TMP DP  RH WIND       PRES   REMARKS
SHREVEPORT     CLEAR     70  58  65 NW8       30.03S                  
6HR MIN TEMP:  65; 6HR MAX TEMP:  80;                                

BARKSDALE AFB  CLEAR     68  58  71 NW7       30.04R                  
6HR MIN TEMP:  64; 6HR MAX TEMP:  82;                                

DTN SHREVEPORT CLEAR     68  57  68 CALM      30.04R                  
6HR MIN TEMP:  68; 6HR MAX TEMP:  82;                                


$$

LAZ014-016-290700-
NORTHEAST LOUISIANA
  
CITY           SKY/WX    TMP DP  RH WIND       PRES   REMARKS
MONROE         CLEAR     69  60  73 N15G21    30.02R                  
6HR MIN TEMP:  67; 6HR MAX TEMP:  77;                                

TALLULAH       CLEAR     58  56  93 CALM      30.00S                  
6HR MIN TEMP:  58; 6HR MAX TEMP:  73;                                


$$

  

Return to Home page


Western Regional Climate Center, wrcc@dri.edu